This is the latest recevied weather packets stored in our database for station/object N4DWK. If no packets are shown the sender has not sent any weather packets the latest 10 day(s).
| Time | Temp. | Humidity | Pressure | Rain* | Wind** | Luminosity | Snow |
|---|---|---|---|---|---|---|---|
| 1777729805 | 12.22° C | 63% | 1014.5 hPa | 0 mm | - | 104 W/m² | - |
| 1777729505 | 12.22° C | 66% | 1014.5 hPa | 0 mm | - | 98 W/m² | - |
| 1777729205 | 12.22° C | 65% | 1014.4 hPa | 0 mm | - | 91 W/m² | - |
| 1777728905 | 12.22° C | 67% | 1014.4 hPa | 0 mm | - | 100 W/m² | - |
| 1777728605 | 12.22° C | 67% | 1014.4 hPa | 0 mm | - | 125 W/m² | - |
| 1777728305 | 11.67° C | 67% | 1014.3 hPa | 0 mm | - | 120 W/m² | - |
| 1777728005 | 11.67° C | 68% | 1014.3 hPa | 0 mm | - | 120 W/m² | - |
| 1777727706 | 11.67° C | 70% | 1014.3 hPa | 0 mm | - | 98 W/m² | - |
| 1777727405 | 11.67° C | 70% | 1014.3 hPa | 0 mm | - | 81 W/m² | - |
| 1777727106 | 11.67° C | 70% | 1014.2 hPa | 0 mm | - | 74 W/m² | - |
| 1777726805 | 11.67° C | 71% | 1014.2 hPa | 0 mm | - | 83 W/m² | - |
| 1777726504 | 11.67° C | 72% | 1014.1 hPa | 0 mm | - | 63 W/m² | - |
| 1777726206 | 11.11° C | 72% | 1013.9 hPa | 0 mm | - | 67 W/m² | - |
| 1777725905 | 11.11° C | 72% | 1013.9 hPa | 0 mm | - | 62 W/m² | - |
| 1777725606 | 11.11° C | 73% | 1013.9 hPa | 0 mm | - | 54 W/m² | - |
| 1777725305 | 11.11° C | 73% | 1013.7 hPa | 0 mm | - | 69 W/m² | - |
| 1777725006 | 11.11° C | 74% | 1014 hPa | 0 mm | - | 53 W/m² | - |
| 1777724705 | 11.11° C | 75% | 1013.9 hPa | 0 mm | - | 58 W/m² | - |
| 1777724405 | 11.11° C | 75% | 1013.7 hPa | 0 mm | - | 51 W/m² | - |
| 1777724105 | 11.11° C | 76% | 1013.8 hPa | 0 mm | - | 40 W/m² | - |
| 1777723805 | 11.11° C | 76% | 1013.7 hPa | 0 mm | - | 39 W/m² | - |
| 1777723505 | 11.11° C | 77% | 1013.6 hPa | 0 mm | - | 44 W/m² | - |
| 1777723205 | 11.11° C | 76% | 1013.7 hPa | 0 mm | - | 39 W/m² | - |
| 1777722905 | 11.11° C | 77% | 1013.6 hPa | 0 mm | - | 39 W/m² | - |
| 1777722605 | 11.11° C | 77% | 1013.7 hPa | 0 mm | - | 39 W/m² | - |
* Rain latest hour (hover to see other rain measurements)
** Current wind speed in m/s (hover to see current wind gust speed)